Weather in Opochka

Russia / Pskov Oblast     56°42′50″N   28°39′31″E
temp.,
°C
wind,
m/s
gust,
m/s
humid.,
%
clouds,
%
prec.,
mm/h
press.,
hPa
HPBL,
m
17 april, sat
sat1700:00+9ene41180100 0.1 1022474
03:00+8ne4118174 0.1 1022400
06:00+5ne4118412 0.0 1022393
09:00+9ene4973100 0.0 1023492
12:00+9ene4777100 0.0 1023481
15:00+14ene4661100 0.0 10231279
18:00+12ne4972100 0.0 1023963
21:00+9nne278898 0.0 1023148
18 april, sun
sun1800:00+9ne41277100 0.0 1023459
03:00+7ne4117637 0.0 1024362
06:00+5ne311775 0.0 1024374
09:00+8ne48644 0.0 1024503
12:00+12ene57490 0.0 10241122
15:00+14ne57405 0.0 10231615
18:00+14ne47455 0.0 10231864
21:00+8ne310655 0.0 1024267
19 april, mon
mon1900:00+6ne310755 0.0 1025228
03:00+5ene38825 0.0 1026210
06:00+3ne28915 0.0 1026190
09:00+9ene38685 0.0 1026613
12:00+12ene585164 0.0 10251825
15:00+13e4751100 0.1 10241995
18:00+11e476092 0.2 10231298
21:00+9e387499 0.6 1023511
20 april, tue
tue2000:00+7ene268088 0.1 1022316
03:00+5ne398998 0.2 1021417
06:00+5ene498496 0.0 1019688
09:00+7ene587399 0.0 1017813
12:00+4ene41094100 0.9 1016692
15:00+7ene4879100 2.5 10131052
18:00+8ne41079100 0.4 10111063
21:00+7ne51281100 1.3 10071070
21 april, wed
wed2100:00+5ne61394100 4.3 1003961
03:00+4ne51397100 5.8 1000885
06:00+4nne51197100 2.2 997719
09:00+4nne4996100 3.8 996532
12:00+5n3596100 0.8 995429
15:00+6nw3495100 0.9 996480
18:00+4w3795100 0.6 998488
21:00+3wsw3797100 1.4 1001633